Regional Weather Roundup
Issued by NWS State College, PA

Home | Current Version | Previous Version | Text Only | Print | Product List | Glossary On
Versions: 1 2 3 4 5 6 7 8 9 10 11 12 13 14 15 16 17 18 19 20 21 22 23 24 25 26 27 28 29 30 31 32 33 34 35 36 37 38 39 40 41 42 43 44 45 46 47 48 49 50
000
ASUS41 KCTP 301610
RWRCTP

REGIONAL WEATHER ROUNDUP
NATIONAL WEATHER SERVICE STATE COLLEGE PA
1200 PM EDT SAT JUL 30 2016

Note: "fair" indicates few or no clouds below 12,000 feet with no
significant weather and/or obstructions to visibility.

* = STATION THAT DOES NOT REPORT PRECIPITATION /E.G. RAIN...SNOW...ETC/
    THUNDER OR FOG.

PAZ002>004-007>009-013>016-020>023-029>032-301700-
WESTERN PENNSYLVANIA

CITY           SKY/WX    TMP DP  RH WIND       PRES   REMARKS
ERIE           CLOUDY    78  66  66 E9        29.98S
MEADVILLE      CLOUDY    69  64  84 VRB6      30.01R
FRANKLIN*      CLOUDY    66  63  88 E7        30.03S
NEW CASTLE     LGT RAIN  70  69  97 NE5       30.00S
BEAVER COUNTY  DRIZZLE   70  68  94 CALM      30.00S
BUTLER*        CLOUDY    68  64  88 CALM      30.04R
PITTSBURGH INT TSTM      69  68  96 E8        29.99S
PITTSBURGH     LGT RAIN  71  67  87 CALM      29.99S FOG
INDIANA*       PTSUNNY   70  70 100 SE5       30.04F FOG
LATROBE        TSTM      68  68 100 CALM      30.01S FOG
WASHINGTON CO* CLOUDY    73  70  88 NE3       29.98F
$$

PAZ004>006-010>012-017>019-024>028-033>037-041-042-045-046-049>053-301700-
CENTRAL PENNSYLVANIA

CITY           SKY/WX    TMP DP  RH WIND       PRES   REMARKS
BRADFORD       RAIN      63  60  90 NE3       30.08S FOG
DUBOIS         LGT RAIN  68  64  87 CALM      30.04R FOG
CLEARFIELD     LGT RAIN  67  63  87 NE3       30.03S
JOHNSTOWN      HVY RAIN  67  64  90 N9        30.04S VSB 1/2
ALTOONA        CLOUDY    73  69  87 VRB5      30.02S
STATE COLLEGE  LGT RAIN  70  66  88 CALM      30.02S
WILLIAMSPORT   MOSUNNY   80  65  59 E6        29.98S
SELINSGROVE    CLOUDY    81  72  74 SE5       29.99S
FT INDIANTOWN  CLOUDY    79  72  79 NE3       29.99S
CAPITAL CITY   LGT RAIN  82  74  76 E6        29.98S
HARRISBURG     CLOUDY    82  76  81 E6        29.97S HAZE
YORK           CLOUDY    83  71  67 VRB3      29.98F
$$

PAZ038>040-043-044-047-048-054-055-060>062-067>071-301700-
EASTERN PENNSYLVANIA

CITY           SKY/WX    TMP DP  RH WIND       PRES   REMARKS
SCRANTON       PTSUNNY   83  66  56 CALM      30.00F
MOUNT POCONO   PTSUNNY   75  64  68 SE8       30.08S
ALLENTOWN      PTSUNNY   84  72  65 VRB5      30.00F
QUAKERTOWN*    MOSUNNY   84  72  65 CALM      30.01F
READING        PTSUNNY   84  71  65 SE7       29.98S
LANCASTER      CLOUDY    81  74  79 E6        29.99S
COATESVILLE    MOSUNNY   82  73  74 S5        30.03S
POTTSTOWN      MOSUNNY   84  72  67 VRB6      30.01S
BLUE BELL      MOSUNNY   86  72  62 SW6       29.99F
DOYLESTOWN     PTSUNNY   83  76  79 CALM      30.00S
WILLOW GROVE   NOT AVBL
NORTH PHILA    CLOUDY    87  74  64 VRB5      30.01S HX  95
PHILADELPHIA   PTSUNNY   87  72  60 S8        29.99F
$$




USA.gov is the U.S. government's official web portal to all federal, state and local government web resources and services.